Regional Weather Roundup
Issued by NWS

Home | Current Version | Previous Version | Graphics & Text | Print | Product List | Glossary On
Versions: 1 2 3 4 5 6 7 8 9 10 11 12 13 14 15 16 17 18 19 20 21 22 23 24 25 26 27 28 29 30 31 32 33 34 35 36 37 38 39 40 41 42 43 44 45 46 47 48 49 50
000
ASUS43 KOAX 192002
RWRNE

WEATHER ROUNDUP FOR NEBRASKA
NATIONAL WEATHER SERVICE OMAHA NE
300 PM CDT SAT APR 19 2014

NOTES: SATELLITE DATA IS BEING USED TO AUGMENT CLOUD COVER ABOVE
       12000 FEET.
       "FAIR" INDICATES FEW OR NO CLOUDS BELOW 12,000 FEET WITH NO
       SIGNIFICANT WEATHER AND/OR OBSTRUCTIONS TO VISIBILITY.

  * THESE STATIONS DO NOT REPORT WEATHER SUCH AS RAIN...SNOW OR FOG.

NEZ001>004-019>022-054>056-192100-
NEBRASKA PANHANDLE

CITY           SKY/WX    TMP DP  RH WIND       PRES   REMARKS
SCOTTSBLUFF    PTSUNNY   62  31  31 SE10G17   30.05S
ALLIANCE       PTSUNNY   60  26  27 VRB5      30.05S
CHADRON        CLOUDY    62  29  28 NE5       30.03F
KIMBALL        CLOUDY    57  30  36 SE7       30.06S
SIDNEY         CLOUDY    61  33  35 E10       30.07S
$$

NEZ057>060-069>072-079>082-192100-
SOUTHWEST NEBRASKA

CITY           SKY/WX    TMP DP  RH WIND       PRES   REMARKS
NORTH PLATTE   CLOUDY    67  43  41 NE14G21   30.02R
IMPERIAL       MOSUNNY   68  40  35 NE15      30.02S
LEXINGTON      CLOUDY    68  50  52 NE9G16    29.98F
MCCOOK         PTSUNNY   70  49  47 E14       29.97S
OGALLALA       CLOUDY    65  33  30 NE8       30.04R
$$

NEZ005>010-023>029-035>040-094-192100-
NORTH CENTRAL NEBRASKA

CITY           SKY/WX    TMP DP  RH WIND       PRES   REMARKS
VALENTINE      PTSUNNY   62  13  14 NE7       30.06R
AINSWORTH      PTSUNNY   65  27  24 N6        30.04R
BROKEN BOW     CLOUDY    65  46  50 E13       30.00S
O`NEILL        CLOUDY    65  36  35 NE8       30.03R
ORD            CLOUDY    67  47  48 E8        29.99S
THEDFORD       MOSUNNY   69  31  25 NE12      30.03S
$$

NEZ041-046>049-061>064-073>077-083>087-192100-
SOUTH CENTRAL NEBRASKA

CITY           SKY/WX    TMP DP  RH WIND       PRES   REMARKS
GRAND ISLAND   CLOUDY    72  49  44 SW6       29.98S
AURORA         CLOUDY    73  49  42 S12       29.97F
HASTINGS       CLOUDY    75  47  36 S14G20    29.96S
HEBRON         PTSUNNY   79  47  32 SW21G31   29.96S
HOLDREGE       CLOUDY    69  48  46 NE5       29.96F
KEARNEY *      CLOUDY    70  50  49 CALM      29.98S
YORK           CLOUDY    73  48  40 S13       29.97S
$$

NEZ011>018-030>034-042>045-192100-
NORTHEAST NEBRASKA

CITY           SKY/WX    TMP DP  RH WIND       PRES   REMARKS
NORFOLK        CLOUDY    72  47  40 SW10      29.97F
ALBION         CLOUDY    68  46  45 W3        29.99S
BLAIR          MOSUNNY   78  44  29 S21G26    30.00S
COLUMBUS *     CLOUDY    73  50  43 S10       29.98F
FREMONT        CLOUDY    76  44  31 S13G22    29.99S
TEKAMAH        MOSUNNY   81  45  28 S21G30    29.98S
$$

NEZ050>053-065>068-078-088>093-192100-
SOUTHEAST NEBRASKA

CITY           SKY/WX    TMP DP  RH WIND       PRES   REMARKS
LINCOLN        MOSUNNY   80  48  32 S22G30    29.98S
OMAHA EPPLEY   CLOUDY    78  43  28 S22       29.99F
BEATRICE       MOSUNNY   79  47  31 S21G31    29.99S
NEBRASKA CITY  PTSUNNY   79  44  29 S20G31    30.01F
PLATTSMOUTH    MOSUNNY   80  38  22 S20G26    30.00F
$$

NEZ044-045-051>053-067-192100-
OMAHA AREA

CITY           SKY/WX    TMP DP  RH WIND       PRES   REMARKS
OMAHA EPPLEY   CLOUDY    78  43  28 S22       29.99F
BLAIR          MOSUNNY   78  44  29 S21G26    30.00S
FREMONT        CLOUDY    76  44  31 S13G22    29.99S
MILLARD        MOSUNNY   77  46  33 S14G25    29.98F
OFFUTT AFB     MOSUNNY   80  46  29 SE18G32   29.99F
PLATTSMOUTH    MOSUNNY   80  38  22 S20G26    30.00F
WAHOO          FAIR      79  42  26 S15G28    29.98S
$$



USA.gov is the U.S. government's official web portal to all federal, state and local government web resources and services.